Weather History for Rochester, NH

Change the Weather History Date:

Friday, February 8, 2013

  Actual Average (KSFM) Record (KSFM)
Temperature  
Mean Temperature 15 °F -  
Max Temperature 18 °F 31 °F 48 °F (2009)
Min Temperature 12 °F 11 °F -5 °F (2000)
Degree Days  
Heating Degree Days 50    
Moisture  
Dew Point 9 °F    
Average Humidity 80    
Maximum Humidity 86    
Minimum Humidity 48    
Precipitation  
Precipitation 0.19 in - - ()
Sea Level Pressure  
Sea Level Pressure 30.20 in    
Wind  
Wind Speed 10 mph (NNE)    
Max Wind Speed 24 mph    
Max Gust Speed 38 mph    
Visibility 2 miles    
Events Fog , Snow    
Averages and records for this station are not official NWS values.
T = Trace of Precipitation, MM = Missing Value Source: NWS Daily Summary

Daily Weather History Graph

Daily Weather History Graph

Search for Another Location

Airport:

Trip Planner

Search our weather history database for the weather conditions in past years. The results will help you decide how hot, cold, wet, or windy it might be!

Date:

Astronomy

Feb. 08, 2013 Rise Set
Actual Time 6:50 AM EST 5:05 PM EST
Civil Twilight 6:21 AM EST 5:35 PM EST
Nautical Twilight 5:47 AM EST 6:08 PM EST
Astronomical Twilight 5:14 AM EST 6:42 PM EST
Moon 5:18 AM EST (2/8) 3:34 PM EST (2/8)
Length of Visible Light 11h 14m
Length of Day
10h 14m
Waning Crescent, 3% of the Moon is Illuminated
Feb 8
Waning Crescent
Feb 10
New
Feb 17
First Quarter
Feb 25
Full
Mar 4
Last Quarter

Hourly Weather History & Observations

Time (EST) Temp. Windchill Dew Point Humidity Pressure Visibility Wind Dir Wind Speed Gust Speed Precip Events Conditions
12:51 AM 18.0 °F 9.8 °F 1.0 °F 48% 30.50 in 10.0 mi NE 5.8 mph - N/A   Overcast
1:51 AM 18.0 °F 9.8 °F 3.0 °F 52% 30.49 in 10.0 mi NNE 5.8 mph - N/A   Overcast
2:51 AM 17.1 °F 7.6 °F 3.0 °F 54% 30.45 in 10.0 mi NE 6.9 mph - N/A   Overcast
3:51 AM 15.1 °F 5.2 °F 6.1 °F 68% 30.44 in 10.0 mi NNE 6.9 mph - 0.00 in   Overcast
4:34 AM 14.0 °F 2.9 °F 6.8 °F 73% 30.42 in 2.5 mi North 8.1 mph - 0.00 in Snow Light Snow
4:51 AM 14.0 °F 2.9 °F 8.1 °F 77% 30.43 in 2.5 mi NNE 8.1 mph - 0.00 in Snow Light Snow
5:51 AM 12.9 °F 0.7 °F 8.1 °F 81% 30.42 in 2.5 mi NNE 9.2 mph - 0.00 in Snow Light Snow
6:00 AM 12.2 °F -1.0 °F 8.6 °F 85% 30.40 in 3.0 mi NNE 10.4 mph - 0.00 in Snow Light Snow
6:15 AM 12.2 °F -1.8 °F 8.6 °F 85% 30.39 in 2.5 mi NNE 11.5 mph 16.1 mph 0.00 in Snow Light Snow
6:51 AM 12.9 °F -0.9 °F 8.1 °F 81% 30.41 in 2.5 mi NNE 11.5 mph - 0.00 in Snow Light Snow
6:59 AM 12.2 °F 1.7 °F 8.6 °F 85% 30.40 in 3.0 mi NNE 6.9 mph - 0.00 in Snow Light Snow
7:17 AM 12.2 °F 1.7 °F 8.6 °F 85% 30.40 in 2.0 mi North 6.9 mph - 0.00 in Snow Light Snow
7:25 AM 12.2 °F -0.2 °F 8.6 °F 85% 30.39 in 1.5 mi NNE 9.2 mph - 0.00 in Snow Light Snow
7:51 AM 12.0 °F -1.3 °F 8.1 °F 84% 30.41 in 1.2 mi NNE 10.4 mph - 0.00 in Snow Light Snow
8:09 AM 12.2 °F -1.0 °F 6.8 °F 79% 30.39 in 2.0 mi NNE 10.4 mph 17.3 mph 0.00 in Snow Light Snow
8:42 AM 12.2 °F 0.7 °F 6.8 °F 79% 30.38 in 3.0 mi NNE 8.1 mph - 0.00 in Snow Light Snow
8:51 AM 12.9 °F -0.2 °F 7.0 °F 77% 30.39 in 3.0 mi NNE 10.4 mph 17.3 mph 0.00 in Snow Light Snow
9:51 AM 12.9 °F 0.7 °F 7.0 °F 77% 30.36 in 4.0 mi NNE 9.2 mph - 0.00 in Snow Light Snow
9:59 AM 12.2 °F -1.0 °F 8.6 °F 85% 30.35 in 6.0 mi NNE 10.4 mph 19.6 mph 0.00 in Snow Light Snow
10:51 AM 12.9 °F -0.9 °F 8.1 °F 81% 30.35 in 3.0 mi North 11.5 mph - 0.00 in Snow Light Snow
10:58 AM 12.2 °F -1.8 °F 8.6 °F 85% 30.34 in 2.5 mi North 11.5 mph - 0.00 in Snow Light Snow
11:08 AM 12.2 °F -1.8 °F 8.6 °F 85% 30.33 in 1.2 mi NNE 11.5 mph - 0.00 in Snow Light Snow
11:22 AM 12.2 °F -0.2 °F 8.6 °F 85% 30.31 in 1.5 mi NNE 9.2 mph 19.6 mph 0.00 in Snow Light Snow
11:37 AM 12.2 °F -3.1 °F 8.6 °F 85% 30.30 in 3.0 mi NNE 13.8 mph 20.7 mph 0.00 in Snow Light Snow
11:51 AM 14.0 °F 1.2 °F 8.1 °F 77% 30.30 in 4.0 mi North 10.4 mph 21.9 mph 0.00 in Snow Light Snow
12:00 PM 14.0 °F -0.8 °F 8.6 °F 79% 30.28 in 1.8 mi NNE 13.8 mph 21.9 mph 0.00 in Snow Light Snow
12:51 PM 15.1 °F 2.5 °F 10.9 °F 84% 30.25 in 0.5 mi NNE 10.4 mph 24.2 mph 0.01 in Fog , Snow Snow
1:51 PM 16.0 °F 1.7 °F 12.0 °F 84% 30.21 in 0.8 mi NNE 13.8 mph 20.7 mph 0.00 in Snow Light Snow
2:11 PM 15.8 °F 2.1 °F 10.4 °F 79% 30.19 in 1.0 mi NNE 12.7 mph - 0.00 in Snow Light Snow
2:21 PM 15.8 °F 3.4 °F 10.4 °F 79% 30.18 in 0.8 mi NNE 10.4 mph 21.9 mph 0.00 in Snow Light Snow
2:51 PM 16.0 °F 2.3 °F 10.9 °F 81% 30.18 in 0.5 mi NNE 12.7 mph 19.6 mph 0.01 in Snow Snow
3:51 PM 16.0 °F 1.1 °F 10.9 °F 81% 30.14 in 0.5 mi NNE 15.0 mph 26.5 mph 0.01 in Snow Snow
4:01 PM 15.8 °F 2.7 °F 10.4 °F 79% 30.12 in 0.2 mi NNE 11.5 mph 23.0 mph 0.00 in Fog , Snow Snow
4:12 PM 15.8 °F 3.4 °F 10.4 °F 79% 30.11 in 0.2 mi NNE 10.4 mph 23.0 mph 0.01 in Fog , Snow Snow
4:21 PM 15.8 °F 2.1 °F 10.4 °F 79% 30.11 in 0.5 mi NNE 12.7 mph 20.7 mph 0.01 in Fog , Snow Snow
4:51 PM 15.1 °F 1.1 °F 10.9 °F 84% 30.09 in 0.2 mi NNE 12.7 mph 21.9 mph 0.02 in Fog , Snow Snow
5:06 PM 15.8 °F 2.7 °F 10.4 °F 79% 30.07 in 0.8 mi NNE 11.5 mph 23.0 mph 0.00 in Snow Light Snow
5:13 PM 15.8 °F 0.9 °F 10.4 °F 79% 30.07 in 0.8 mi NNE 15.0 mph 24.2 mph 0.00 in Snow Light Snow
5:21 PM 15.8 °F 2.1 °F 10.4 °F 79% 30.06 in 1.0 mi North 12.7 mph 23.0 mph 0.00 in Snow Light Snow
5:30 PM 15.8 °F 1.4 °F 12.2 °F 86% 30.05 in 0.8 mi NNE 13.8 mph 19.6 mph 0.00 in Snow Light Snow
5:51 PM 16.0 °F 1.1 °F 12.0 °F 84% 30.05 in 0.8 mi North 15.0 mph 24.2 mph 0.01 in Snow Light Snow
6:40 PM 15.8 °F 0.9 °F 12.2 °F 86% 30.02 in 0.8 mi NNE 15.0 mph 25.3 mph 0.01 in Snow Light Snow
6:48 PM 17.6 °F 2.2 °F 12.2 °F 79% 30.01 in 1.0 mi North 17.3 mph 26.5 mph 0.01 in Snow Light Snow
6:51 PM 17.1 °F 3.0 °F 12.0 °F 81% 30.02 in 1.0 mi NNE 13.8 mph 26.5 mph 0.01 in Snow Light Snow
7:02 PM 17.6 °F 3.2 °F 12.2 °F 79% 30.01 in 0.8 mi NNE 15.0 mph 28.8 mph 0.00 in Snow Light Snow
7:21 PM 15.8 °F 0.9 °F 12.2 °F 86% 29.99 in 0.5 mi NNE 15.0 mph 26.5 mph 0.01 in Fog , Snow Snow
7:51 PM 16.0 °F -0.4 °F 12.0 °F 84% 29.97 in 0.5 mi North 18.4 mph 29.9 mph 0.02 in Fog , Snow Snow
8:51 PM 15.1 °F -1.6 °F 10.9 °F 84% 29.93 in 0.8 mi North 18.4 mph 29.9 mph 0.02 in Snow Light Snow
9:51 PM 16.0 °F -0.4 °F 10.9 °F 81% 29.86 in 0.5 mi North 18.4 mph 38.0 mph 0.01 in Snow Snow
10:51 PM 15.1 °F -2.0 °F 10.9 °F 84% 29.81 in 0.5 mi North 19.6 mph 28.8 mph 0.03 in Fog , Snow Snow
11:12 PM 14.0 °F -3.4 °F 10.4 °F 86% 29.80 in 0.2 mi NNE 19.6 mph 31.1 mph 0.00 in Fog , Snow Heavy Snow
11:51 PM 14.0 °F -3.9 °F 10.0 °F 84% 29.76 in 0.2 mi North 20.7 mph 33.4 mph 0.04 in Fog Light Freezing Fog
11:59 PM 14.0 °F -5.1 °F 8.6 °F 79% 29.73 in 0.5 mi NNE 24.2 mph 34.5 mph N/A   Haze